OPS 4682 DEB, 52782

Orbit data source: Space-Track

OPS 4682 DEB, 52782 is space debris in LEO originally from a launch on Sat, 03 Apr 1965 UTC launched from the Air Force Western Test Range (AFWTR). Debris objects in space refer to the collection of defunct objects orbiting the Earth. Examples of debris include non-operational satellites, rocket bodies, and fragments generated from explosions, collisions, or faulty payload assembly.

Loading next visibility...
Identifier
52782, 1965-027GY
Orbit
LEO
Country
Flag of USUS
Related business
Manufacturer
Unknown
Mission
Spacecraft
Bus & Motor
Unknown
Mass
Unknown
Launch date (UTC)
1965-04-03 (61 years ago)
Launch vehicle
Unknown
Launch site
Air Force Western Test Range (AFWTR)
Object type
Payload
Rocket body
Debris
Shape & HBR
Unknown shape, 0.1 m
Radar Cross Section
Medium (>0.1 m² and <1 m²)

Expand to show TLE details & history
Last TLE update: 3 days ago

TLE from 3 days ago
0 OPS 4682 DEB
1 52782U 65027GY  26262.57478306 -.00000193  00000-0 -68935-3 0  9991
2 52782  90.2440   6.9525 0032573 166.1685 256.0375 12.97621069607278
Epoch: 2026-09-19T13:47Z
TLE epoch observation values (Epoch: 2026-09-19T13:47:41.256Z)
Latitude
61.92785°
Longitude
161.09402°
Altitude
1,288.189 km
Speed
7.215 km/s
True Right ascension
00h 25m 59s
True Declination
61° 47' 41"
Sunlit
Object was in daylight at epoch
Visualization orbit readout
Latitude
Unknown
Longitude
Unknown
Altitude
Unknown
Speed
Unknown
Apparent Right ascension
Unknown
Apparent Declination
Unknown
Sunlit
N/A
Visualization observer readout
Local Sidereal Time
11:57:05
Azimuth
Unknown
Elevation
Unknown
Doppler factor
Unknown
Orbital elements
Apogee altitude
1,293.46 km
Perigee altitude
1,243.645 km
Semi-major axis
7,646.689 km
Eccentricity
0.00326
Inclination
90.244°
RAAN
6.9525°
Arg. of periapsis
166.1685°
True anomaly
255.67563°
Mean anomaly
256.0375°
Eccentric anomaly
255.85653°
Mean motion
3.24588 °/min
Orbital period
110.91 mins
BSTAR
-0.00068935
Loading maneuver chart data...
Computing Atmospheric mass density...
Loading historical data...
Loading historical data...
Loading historical data...
Loading historical data...
Loading historical data...
Loading historical data...
Loading historical data...

Documentation

Showing up to 5 results
|